Theta_e
341 341 345 345 343 343 340 340 337 335 332 330 334 336 338 335 333 333 334 331 329 328 327 331 334 337 338 337 337 336 333 329 327 326 324 322 321 328 332 332 329 331 332
340 340 344 341 342 339 341 341 336 333 330 329 330 331 332 331 331 331 331 330 329 328 328 328 329 332 333 335 335 334 330 328 327 325 322 322 321 326 330 329 327 329 335
339 338 342 340 339 339 341 338 334 332 330 329 330 330 330 330 331 332 330 330 328 329 328 328 327 328 330 332 333 329 329 329 328 326 324 324 325 325 331 328 325 325 332
339 335 340 340 341 337 340 337 333 333 331 329 329 330 329 329 330 329 330 329 328 327 328 328 327 326 327 326 326 327 329 329 328 326 325 324 325 328 331 330 330 329 331
343 338 341 342 335 339 340 332 333 333 331 329 327 328 331 331 333 334 331 329 328 329 328 326 327 327 324 320 323 327 329 330 329 327 327 327 324 327 332 331 330 329 330
344 346 340 336 338 340 336 334 333 332 332 329 325 326 331 336 335 336 333 329 329 329 327 326 326 328 329 328 329 328 327 325 326 325 323 326 327 325 326 330 330 329 330
343 346 344 340 339 339 336 336 334 333 333 332 327 326 333 333 332 336 335 331 330 328 327 327 329 328 330 331 333 332 331 327 324 321 320 320 324 327 327 327 329 330 331
342 344 344 342 340 335 335 336 334 334 335 334 330 328 331 330 330 334 336 334 332 330 328 330 330 329 328 331 333 333 333 330 327 324 322 323 323 324 329 329 328 328 330
341 342 338 343 341 333 336 334 335 335 334 334 334 331 326 326 327 330 333 333 331 329 328 328 330 331 330 329 330 331 329 328 327 325 324 323 322 325 328 330 330 329 327
340 341 340 335 335 335 335 335 337 335 335 335 334 333 329 322 325 328 328 329 329 330 329 323 322 323 324 324 324 322 321 324 326 327 328 326 327 326 329 329 329 330 329
340 340 340 340 340 337 335 335 335 334 334 333 333 330 328 326 329 332 332 331 329 326 327 329 329 330 330 330 329 329 328 328 328 328 329 329 328 328 329 328 327 328 329
339 340 340 341 343 341 341 340 337 336 334 332 333 333 331 330 330 331 330 330 331 332 332 332 332 332 332 332 332 332 332 332 331 330 330 329 329 330 331 331 330 329 330
338 340 341 341 343 342 341 340 339 337 337 336 335 333 333 332 332 332 332 332 333 333 334 333 334 334 333 333 333 332 332 332 332 332 332 332 331 331 332 332 332 331 331
337 339 340 341 342 341 340 338 339 337 336 335 334 333 333 333 333 334 334 334 335 335 335 334 332 330 330 331 330 330 329 329 328 330 331 331 332 332 333 334 332 332 332
336 339 339 341 341 341 341 340 338 337 336 335 334 334 334 334 335 335 335 334 334 333 331 331 328 325 324 323 322 320 321 324 326 326 324 323 325 327 327 328 330 332 332
334 337 339 339 340 341 340 339 338 337 335 334 334 334 334 334 334 334 333 329 326 325 324 320 316 316 316 316 316 315 318 318 318 317 318 318 321 321 323 325 327 329 330
331 333 334 337 339 340 340 339 337 336 335 334 333 332 332 332 333 329 321 316 316 315 316 316 315 313 314 313 311 313 313 313 314 313 313 316 314 314 315 317 320 324 326
327 329 332 336 339 338 338 337 335 334 333 332 331 330 327 320 316 316 313 313 313 313 313 312 310 310 306 307 306 306 309 310 306 310 311 309 310 310 311 312 311 315 320
327 328 329 334 337 337 336 334 331 330 327 323 320 319 315 313 312 311 310 309 309 310 309 307 305 302 305 303 304 304 302 305 306 307 305 306 309 306 307 307 309 309 308
327 329 328 334 336 333 331 328 322 317 314 313 312 310 309 309 308 308 306 304 304 305 303 301 300 300 302 301 303 301 303 307 303 302 300 306 304 306 303 306 304 302 302
329 331 332 334 331 329 324 318 315 311 310 309 308 307 307 305 304 303 302 301 302 301 300 300 299 300 300 300 302 300 302 303 302 298 301 304 301 303 301 302 300 300 301
329 331 332 330 329 326 322 317 313 310 308 307 306 305 303 303 302 301 300 299 299 299 297 299 298 299 300 299 300 300 299 300 301 298 299 298 301 298 301 299 299 300 299
325 326 326 327 322 319 316 314 311 309 308 307 306 304 303 302 300 299 298 298 298 297 296 296 297 297 298 298 298 299 297 298 297 300 296 298 295 299 297 298 298 298 299
321 321 322 320 319 317 315 312 310 310 309 308 306 303 301 300 298 297 297 296 296 295 295 294 294 295 295 296 297 297 297 297 296 295 297 295 298 296 296 297 296 297 295
319 319 319 318 317 315 313 312 310 309 308 306 304 302 300 299 297 295 295 295 294 294 294 293 293 293 293 294 295 295 295 295 295 293 294 294 295 295 295 296 296 294 294
314 313 312 312 312 313 312 310 309 308 306 304 302 300 298 297 296 294 293 293 293 293 293 292 292 292 292 292 293 293 293 293 293 294 293 293 294 294 294 294 293 293 293
Wind_Speed
14 19 17 14 15 12 10 11 7 6 5 6 7 8 9 9 6 5 5 3 5 7 8 6 10 11 10 6 5 2 2 7 11 13 11 5 1 3 2 5 4 1 4
17 20 17 15 15 12 13 10 6 5 5 6 6 6 6 5 5 4 4 5 5 5 7 7 4 6 7 6 2 1 5 9 7 12 8 2 3 2 4 5 4 3 1
16 19 18 17 15 14 13 11 7 6 5 7 7 5 3 4 2 5 4 5 5 4 6 5 4 4 4 4 3 3 6 6 9 10 6 1 4 5 7 6 6 6 4
15 19 20 16 16 12 13 10 7 7 6 5 7 4 3 3 4 2 2 2 2 5 6 5 5 4 3 4 3 6 4 6 8 8 1 3 2 4 9 7 6 6 6
14 20 20 18 14 14 15 9 8 8 6 4 7 6 3 3 4 5 3 1 2 4 6 6 4 3 3 2 5 7 7 7 8 7 4 6 7 5 8 8 8 8 9
17 19 18 15 14 17 13 9 7 7 5 3 4 8 3 1 3 5 7 2 4 4 5 5 3 4 4 4 5 5 7 8 11 11 9 9 9 11 11 12 9 10 11
18 19 16 17 15 15 11 9 6 7 6 4 3 6 4 1 4 2 6 4 6 4 5 5 5 6 7 8 9 8 8 10 10 12 14 13 13 12 12 13 13 14 13
19 18 16 17 16 13 11 9 7 7 5 3 3 4 5 4 2 2 6 5 4 4 6 7 8 9 8 9 9 10 11 13 13 15 16 15 15 16 15 16 16 16 17
14 13 12 18 16 14 12 10 8 8 7 5 3 1 5 7 4 1 3 5 6 6 8 11 11 11 10 10 10 12 15 15 17 18 19 20 18 17 17 18 19 19 19
13 12 11 15 16 15 14 12 11 9 8 7 4 2 2 4 4 3 2 5 7 9 12 13 13 12 12 12 14 15 15 16 18 20 21 18 17 17 18 19 20 20 20
15 13 14 14 14 14 12 12 11 8 8 8 5 1 3 5 2 1 3 5 8 10 9 11 9 11 11 12 11 12 13 17 19 20 21 20 18 18 18 21 22 22 22
20 19 17 17 16 11 13 13 10 8 7 5 3 4 4 2 3 2 5 5 5 8 9 11 12 13 14 15 16 17 18 18 19 21 23 24 24 23 23 24 25 25 24
26 23 22 19 16 13 14 13 7 8 5 5 5 4 2 1 1 2 3 5 8 9 10 12 14 14 17 17 18 20 22 23 23 24 26 27 28 27 25 26 27 28 29
25 25 24 20 19 17 14 13 9 8 8 5 6 5 4 3 3 4 5 5 6 5 7 9 12 16 16 17 18 17 19 20 23 24 24 23 26 27 26 27 29 29 30
25 26 24 22 20 17 17 13 10 9 10 8 8 6 5 3 1 2 3 3 4 6 9 11 11 13 14 16 18 19 21 22 21 23 23 24 25 26 29 29 29 29 29
20 24 24 22 20 18 14 12 11 7 9 9 7 4 2 2 1 3 3 8 10 11 10 9 12 13 15 16 19 20 20 20 19 22 25 27 28 29 30 30 31 30 27
13 19 21 21 20 18 14 12 11 10 10 10 8 6 7 4 2 8 9 11 12 12 9 10 12 13 16 18 19 19 20 23 22 25 26 21 19 20 23 23 23 20 22
11 14 16 22 22 19 16 14 13 12 13 14 14 11 11 15 14 11 9 9 9 9 9 11 14 16 18 19 21 21 19 21 23 19 16 22 22 23 22 23 25 21 17
10 10 14 21 25 22 18 21 21 20 21 20 17 16 15 15 12 10 10 10 10 9 12 14 15 17 18 22 22 21 22 18 19 19 21 24 22 27 26 28 25 26 28
12 14 18 26 27 28 28 27 28 26 23 20 19 17 16 14 12 10 10 11 11 11 13 14 16 16 18 23 20 24 15 11 21 25 30 26 29 27 32 28 32 36 36
17 21 26 31 32 31 31 31 28 26 23 21 19 17 16 14 13 13 12 11 11 12 13 15 17 19 19 25 15 24 12 12 13 31 25 23 30 28 31 32 36 35 33
21 24 27 29 29 29 27 25 28 26 22 21 18 17 15 14 13 13 11 11 10 10 12 14 17 18 13 23 14 11 4 9 16 35 23 29 20 31 26 30 32 30 35
22 25 26 28 30 29 28 28 27 25 22 19 15 15 13 12 12 12 10 10 9 9 11 13 16 18 18 23 23 8 4 3 15 8 31 18 37 22 31 28 30 33 28
22 25 26 29 31 30 29 30 29 26 21 15 13 12 10 10 11 10 9 9 9 10 12 14 15 17 19 22 25 17 16 17 5 7 10 32 19 30 28 29 31 25 36
23 23 24 26 26 28 27 24 23 21 18 16 13 11 8 7 9 9 9 9 10 12 13 14 17 17 18 19 21 23 24 22 21 6 12 9 24 25 28 27 25 34 29
25 26 28 28 25 25 24 22 21 20 18 16 14 13 9 6 7 9 10 10 10 12 14 15 16 17 19 19 21 24 23 14 16 11 12 13 16 23 23 27 29 28 30
Wind_Direction
156 159 159 159 153 158 146 148 132 121 93 91 100 93 125 113 101 95 80 72 47 38 26 8 19 36 54 79 111 130 311 313 328 335 317 315 222 232 251 206 250 87 217
158 161 156 154 157 160 156 149 144 118 102 88 116 120 119 113 86 93 80 80 67 52 9 356 357 13 20 38 5 276 306 316 333 333 328 311 194 174 192 209 235 220 263
148 157 155 153 161 157 161 155 139 134 121 112 121 123 113 169 129 93 69 99 62 36 13 8 352 325 343 357 5 343 291 304 323 322 325 22 301 243 214 239 262 234 234
144 155 150 153 163 161 167 158 150 148 137 133 139 132 143 163 173 148 95 62 41 6 5 4 356 349 296 277 274 282 297 301 305 325 80 335 309 205 212 238 250 249 243
148 154 158 165 168 161 165 162 150 154 146 144 174 183 173 171 217 207 175 94 289 325 352 360 349 356 359 311 261 266 268 276 275 295 287 304 261 225 220 237 243 244 249
164 163 160 161 162 164 169 163 150 153 142 121 153 183 141 345 264 239 185 241 283 289 319 338 322 306 301 304 296 286 281 276 273 275 276 269 265 267 241 249 246 250 245
163 170 171 171 171 175 178 167 158 156 140 140 136 168 165 84 31 210 187 209 257 293 317 310 313 304 296 295 282 277 279 283 284 281 274 264 259 262 259 254 254 254 252
169 171 182 180 181 185 179 170 165 165 153 179 125 180 201 238 13 58 204 213 252 284 297 294 301 306 300 293 288 284 283 286 287 286 285 279 275 272 267 266 266 264 261
171 174 183 185 189 187 180 176 173 180 190 200 190 214 234 248 247 17 183 228 259 278 288 301 303 303 301 296 288 283 285 287 290 292 294 292 281 277 274 273 272 270 268
181 187 186 187 190 190 190 190 190 190 201 210 224 285 293 246 231 269 269 283 283 292 297 303 302 305 308 309 304 300 295 293 292 302 305 294 295 291 281 280 276 278 276
179 194 194 187 188 191 191 195 197 200 211 222 236 221 75 100 151 242 261 283 306 313 323 326 331 337 331 330 329 322 308 302 298 299 298 301 300 292 283 282 279 278 278
191 191 199 197 194 182 193 197 195 207 210 211 163 140 82 83 64 272 301 304 328 340 347 351 343 338 329 321 318 318 311 308 300 297 296 298 295 285 285 282 278 278 277
200 193 192 193 191 182 189 177 178 199 200 209 193 170 132 305 261 309 331 327 335 340 342 340 337 332 334 331 324 317 309 301 297 295 296 298 293 285 283 281 279 277 273
199 193 190 193 188 192 193 178 185 188 189 206 177 190 198 229 233 304 309 314 312 326 333 341 337 328 328 333 334 330 324 320 315 311 312 313 303 299 291 286 284 283 279
191 193 187 187 190 183 188 186 174 171 185 183 161 172 197 198 221 338 336 337 344 350 348 352 6 1 351 342 334 330 325 316 311 312 318 316 312 309 303 296 290 284 283
181 180 182 188 190 186 171 174 176 148 170 154 150 172 189 180 70 35 29 28 29 23 23 18 13 356 347 337 328 330 334 335 331 324 321 320 320 315 312 305 296 285 284
161 180 179 183 183 179 178 165 174 157 134 131 132 140 122 122 125 102 79 57 46 37 18 357 345 340 339 339 338 338 331 324 329 328 330 343 352 345 346 339 346 325 308
152 153 155 176 167 160 157 157 150 146 134 132 129 128 111 102 93 88 71 47 37 26 358 357 356 343 347 355 349 341 337 327 330 352 357 348 359 356 357 356 351 355 351
156 177 171 152 153 149 150 144 136 133 123 120 119 115 104 97 90 79 58 41 30 20 10 2 357 2 2 357 352 342 334 336 355 357 355 352 351 349 348 349 353 344 339
143 151 145 145 145 141 137 133 126 119 116 117 112 107 102 94 84 75 56 39 34 21 17 16 10 7 2 357 348 343 347 355 347 357 348 346 344 344 347 349 342 339 333
142 138 142 139 140 142 138 131 125 117 116 112 110 106 97 87 75 66 55 46 39 30 27 22 10 5 1 2 352 343 338 333 350 349 341 338 333 336 339 335 332 332 331
141 142 142 141 144 143 140 137 131 126 121 118 113 103 93 83 72 63 56 52 41 28 24 19 13 4 352 4 359 339 340 327 344 328 339 327 329 334 328 330 326 326 325
127 134 139 144 141 140 138 134 130 129 126 122 116 105 87 76 70 61 54 46 37 27 24 18 12 10 356 352 2 16 346 328 324 334 322 332 324 327 325 323 324 320 324
127 130 135 137 139 142 145 144 145 144 139 134 130 114 93 70 62 56 47 37 31 24 20 15 8 6 360 348 345 343 329 321 311 318 324 316 319 320 318 316 318 318 322
134 134 137 138 139 142 146 149 147 139 131 131 128 125 107 75 51 49 42 32 25 17 13 8 2 358 353 342 335 329 323 321 317 284 306 308 307 309 311 309 310 314 313
132 130 130 130 132 141 146 147 144 138 136 132 123 126 124 96 48 37 29 23 17 11 6 0 353 347 342 334 326 323 319 315 312 306 306 308 303 306 306 305 307 308 307